Volver al catálogo

STARLINK-2092

ActivoComunicacionesVLEO
NORAD 47373·PAYLOAD·🇺🇸 United States

Lanzado Jan 20, 2021 desde Cape Canaveral Space Force Station

Loading…

Próximos Pases (próximas 24 horas)

TLE

ActualizadoSource: CelesTrak SupGP

Época: Sep 14, 2026, 21:29 UTC

1 47373C 21005AA  26257.89562500  .00055652  00000+0  17904-2 0  2571
2 47373  53.1572 261.9670 0001250  93.9795 203.5275 15.31660157    10

Sigue STARLINK-2092 en tiempo real con AllMySat

Download on the App Store